Starlink 5168

operational
NORAD ID: 54071 Int'l Des: 2022-136 Owner: SPXS Country: US Constellation: starlink
LEOCIRCULAR

Über Starlink 5168

Beschreibung wird geladen...

Live-Position

3D-Globus wird geladen...

Nächste Überflüge

Höhenverlauf

Altitude vs Time

uPlot chart will show altitude changes over time

Zweizeiliger Elementsatz

1 54071U 22136W 25351.31890587 .00002157 00000-0 15356-3 0 9996
2 54071 53.2184 353.5549 0001211 91.4903 268.6228 15.08837014174415
Epoch: 17. Dez. 2025 • Age: 5 hours

Aktueller Status

Höhe 545.5 km
Geschwindigkeit 7.60 km/s
Subsatellitenpunkt 53.08°N, 155.98°E
Startdatum 20. Okt. 2022
Alter 3.1 years
Typ internet

Technische Details

Klassifizierung Payload
Masse 305.00 kg
Trockenmasse 290.00 kg
Gesamtmasse 305.00 kg
Länge 0.20 m
Durchmesser 2.80 m
Spannweite 9.00 m
Form Box + pan
Hersteller SPXS
Bus-Typ Starlink
Phasenstatus In Orbit
Besitzer/Staat SPXS/US

Große Konstellationen

Loading constellations...